Fort Sill, OK

11:48 PM CDT on April 22, 2018 (GMT -0500)
Post Army Air Field

Weather History for KFSI - December, 2012

Change the Weather History Date:

Monday, December 31, 2012

  Actual Average Record
Temperature  
Mean Temperature 38 °F -  
Max Temperature 42 °F 46 °F 81 °F (1951)
Min Temperature 33 °F 24 °F 6 °F (1968)
Degree Days  
Heating Degree Days 28    
Moisture  
Dew Point 36 °F    
Average Humidity 95    
Maximum Humidity 100    
Minimum Humidity 80    
Precipitation  
Precipitation 0.20 in - - ()
Sea Level Pressure  
Sea Level Pressure 30.04 in    
Wind  
Wind Speed 9 mph (SSE)    
Max Wind Speed 15 mph    
Max Gust Speed 18 mph    
Visibility 7 miles    
Events Rain    
Averages and records for this station are not official NWS values.
T = Trace of Precipitation, MM = Missing Value Source: NWS Daily Summary

Daily Weather History Graph

Daily Weather History Graph

Search for Another Location

Airport or City:

Astronomy

Dec. 31, 2012 Rise Set
Actual Time 7:40 AM CST 5:33 PM CST
Civil Twilight 7:12 AM CST 6:01 PM CST
Nautical Twilight 6:41 AM CST 6:32 PM CST
Astronomical Twilight 6:10 AM CST 7:03 PM CST
Moon 8:56 PM CST (12/31) 9:31 AM CST (12/31)
Length of Visible Light 10h 48m
Length of Day
9h 52m
Waning Gibbous, 90% of the Moon is Illuminated
Dec 31
Waning Gibbous
Jan 4
Last Quarter
Jan 11
New
Jan 18
First Quarter
Jan 26
Full

Hourly Weather History & Observations

Time (CST) Temp. Windchill Dew Point Humidity Pressure Visibility Wind Dir Wind Speed Gust Speed Precip Events Conditions
12:55 AM 36.5 °F 28.2 °F 30.9 °F 80% 30.14 in 10.0 mi SSE 12.7 mph - N/A   Overcast
1:55 AM 35.4 °F 27.8 °F 32.4 °F 89% 30.14 in 10.0 mi SSE 10.4 mph - N/A   Overcast
2:04 AM 35.6 °F 28.6 °F 32.0 °F 87% 30.12 in 10.0 mi SSE 9.2 mph - N/A Rain Light Rain
2:55 AM 35.2 °F 25.8 °F 32.5 °F 90% 30.13 in 10.0 mi South 15.0 mph - 0.00 in Rain Light Rain
3:45 AM 33.8 °F 25.8 °F 33.8 °F 100% 30.11 in 6.0 mi SSE 10.4 mph - N/A Rain Light Rain
3:55 AM 34.5 °F 26.7 °F 32.9 °F 94% 30.11 in 5.0 mi SSE 10.4 mph - 0.09 in Rain Rain
4:16 AM 33.8 °F 26.4 °F 33.8 °F 100% 30.09 in 5.0 mi SSE 9.2 mph - N/A Rain Light Rain
4:32 AM 33.8 °F 25.8 °F 33.8 °F 100% 30.09 in 5.0 mi SSE 10.4 mph - N/A Rain Light Rain
4:55 AM 34.5 °F 25.7 °F 33.4 °F 96% 30.05 in 5.0 mi SE 12.7 mph - 0.07 in   Overcast
5:23 AM 33.8 °F 25.3 °F 33.8 °F 100% 30.04 in 7.0 mi SE 11.5 mph - N/A   Overcast
5:35 AM 33.8 °F 26.4 °F 33.8 °F 100% 30.05 in 8.0 mi SSE 9.2 mph - N/A   Overcast
5:39 AM 33.8 °F 26.4 °F 33.8 °F 100% 30.04 in 9.0 mi SSE 9.2 mph - N/A   Overcast
5:41 AM 33.8 °F 26.4 °F 33.8 °F 100% 30.04 in 9.0 mi SSE 9.2 mph - N/A   Overcast
5:43 AM 33.8 °F 27.0 °F 33.8 °F 100% 30.04 in 9.0 mi SE 8.1 mph - N/A   Overcast
5:45 AM 33.8 °F 27.0 °F 33.8 °F 100% 30.04 in 9.0 mi SE 8.1 mph - N/A   Overcast
5:55 AM 34.5 °F 28.6 °F 33.4 °F 96% 30.04 in 9.0 mi SSE 6.9 mph - 0.02 in   Overcast
6:11 AM 33.8 °F 27.0 °F 33.8 °F 100% 30.05 in 9.0 mi SE 8.1 mph - N/A   Overcast
6:19 AM 33.8 °F 26.4 °F 33.8 °F 100% 30.04 in 9.0 mi ESE 9.2 mph - N/A   Overcast
6:24 AM 33.8 °F 27.7 °F 33.8 °F 100% 30.04 in 8.0 mi ESE 6.9 mph - N/A   Overcast
6:30 AM 33.8 °F 26.4 °F 33.8 °F 100% 30.04 in 8.0 mi SE 9.2 mph - N/A   Overcast
6:38 AM 33.8 °F 25.8 °F 33.8 °F 100% 30.04 in 8.0 mi SE 10.4 mph - N/A   Overcast
6:40 AM 33.8 °F 26.4 °F 33.8 °F 100% 30.03 in 9.0 mi SE 9.2 mph - N/A   Light Drizzle
6:55 AM 34.5 °F 27.3 °F 33.4 °F 96% 30.03 in 9.0 mi SE 9.2 mph - 0.00 in Rain Light Rain
6:59 AM 33.8 °F 27.0 °F 33.8 °F 100% 30.04 in 7.0 mi SE 8.1 mph - N/A Rain Light Rain
7:14 AM 35.6 °F 31.7 °F 33.8 °F 93% 30.05 in 10.0 mi SE 4.6 mph - N/A   Overcast
7:17 AM 35.6 °F 31.7 °F 33.8 °F 93% 30.05 in 10.0 mi SE 4.6 mph - N/A Rain Light Rain
7:28 AM 35.6 °F 30.7 °F 33.8 °F 93% 30.05 in 9.0 mi SSE 5.8 mph - N/A Rain Light Rain
7:33 AM 35.6 °F 29.9 °F 33.8 °F 93% 30.05 in 8.0 mi SSE 6.9 mph - N/A Rain Light Rain
7:41 AM 35.6 °F 30.7 °F 33.8 °F 93% 30.05 in 8.0 mi SSE 5.8 mph - N/A   Overcast
7:45 AM 35.6 °F 30.7 °F 33.8 °F 93% 30.06 in 7.0 mi SSE 5.8 mph - N/A   Light Drizzle
7:55 AM 34.9 °F 30.8 °F 33.8 °F 96% 30.05 in 4.0 mi SE 4.6 mph - 0.01 in   Light Drizzle
7:59 AM 35.6 °F 29.9 °F 33.8 °F 93% 30.05 in 2.5 mi SE 6.9 mph - N/A   Light Drizzle
8:02 AM 35.6 °F 30.7 °F 33.8 °F 93% 30.05 in 2.5 mi SE 5.8 mph - N/A   Light Drizzle
8:08 AM 35.6 °F 31.7 °F 33.8 °F 93% 30.05 in 2.0 mi SE 4.6 mph - N/A   Overcast
8:12 AM 35.6 °F 30.7 °F 33.8 °F 93% 30.05 in 2.0 mi SE 5.8 mph - N/A   Overcast
8:39 AM 35.6 °F 29.2 °F 33.8 °F 93% 30.04 in 1.8 mi SE 8.1 mph - N/A   Overcast
8:45 AM 35.6 °F 28.6 °F 33.8 °F 93% 30.04 in 1.5 mi SE 9.2 mph - N/A   Overcast
8:47 AM 35.6 °F 28.6 °F 33.8 °F 93% 30.04 in 1.8 mi SE 9.2 mph - N/A   Overcast
8:54 AM 35.6 °F 28.6 °F 33.8 °F 93% 30.04 in 2.0 mi SE 9.2 mph - N/A   Overcast
8:55 AM 35.1 °F 27.9 °F 34.3 °F 97% 30.03 in 2.0 mi SE 9.2 mph - 0.01 in   Overcast
9:03 AM 35.6 °F 29.9 °F 33.8 °F 93% 30.03 in 1.8 mi SE 6.9 mph - N/A   Overcast
9:05 AM 35.6 °F 29.2 °F 33.8 °F 93% 30.03 in 2.0 mi SE 8.1 mph - N/A   Overcast
9:44 AM 35.6 °F 28.0 °F 35.6 °F 100% 30.04 in 3.0 mi SSE 10.4 mph - N/A   Overcast
9:55 AM 36.0 °F 29.0 °F 35.2 °F 97% 30.04 in 4.0 mi SSE 9.2 mph - N/A   Overcast
10:05 AM 35.6 °F 28.6 °F 35.6 °F 100% 30.05 in 3.0 mi SSE 9.2 mph - N/A   Overcast
10:06 AM 35.6 °F 28.0 °F 35.6 °F 100% 30.05 in 3.0 mi SSE 10.4 mph - N/A   Overcast
10:55 AM 36.7 °F 30.5 °F 36.1 °F 98% 30.05 in 4.0 mi SSE 8.1 mph - 0.00 in   Overcast
11:55 AM 37.9 °F 32.7 °F 37.4 °F 98% 30.00 in 4.0 mi SSE 6.9 mph - N/A   Overcast
12:55 PM 39.6 °F 34.0 °F 39.0 °F 98% 29.98 in 3.0 mi South 8.1 mph - N/A   Overcast
1:00 PM 39.2 °F 34.2 °F 39.2 °F 100% 29.98 in 2.5 mi South 6.9 mph - N/A   Overcast
1:29 PM 39.2 °F 33.6 °F 39.2 °F 100% 29.97 in 1.8 mi SSW 8.1 mph - N/A   Overcast
1:55 PM 40.1 °F 35.3 °F 39.9 °F 99% 29.97 in 1.8 mi SW 6.9 mph - N/A   Overcast
1:57 PM 41.0 °F 37.1 °F 39.2 °F 93% 29.97 in 1.5 mi SW 5.8 mph - N/A   Overcast
2:05 PM 41.0 °F 36.4 °F 41.0 °F 100% 29.96 in 1.8 mi SW 6.9 mph - N/A   Overcast
2:22 PM 41.0 °F 36.4 °F 41.0 °F 100% 29.97 in 2.0 mi SW 6.9 mph - N/A   Overcast
2:55 PM 41.0 °F 37.1 °F 40.8 °F 99% 29.96 in 2.0 mi SW 5.8 mph - N/A   Overcast
3:59 PM 42.8 °F - 42.8 °F 100% 29.98 in 7.0 mi Calm Calm - N/A   Overcast
4:14 PM 42.8 °F 39.3 °F 42.8 °F 100% 29.96 in 7.0 mi West 5.8 mph - N/A   Overcast
4:27 PM 42.8 °F 38.0 °F 41.0 °F 93% 29.99 in 9.0 mi WNW 8.1 mph - N/A   Overcast
4:28 PM 42.8 °F 37.0 °F 41.0 °F 93% 29.99 in 10.0 mi WNW 10.4 mph - N/A   Overcast
4:43 PM 42.8 °F 40.1 °F 41.0 °F 93% 29.99 in 10.0 mi WNW 4.6 mph - N/A   Overcast
4:44 PM 42.8 °F 40.1 °F 41.0 °F 93% 29.99 in 10.0 mi WNW 4.6 mph - N/A   Overcast
4:51 PM 42.8 °F 40.1 °F 41.0 °F 93% 29.99 in 10.0 mi West 4.6 mph - N/A   Overcast
4:55 PM 42.6 °F 40.9 °F 41.2 °F 95% 29.99 in 10.0 mi West 3.5 mph - N/A   Overcast
5:00 PM 42.8 °F 41.1 °F 41.0 °F 93% 29.99 in 10.0 mi West 3.5 mph - N/A   Overcast
5:12 PM 42.8 °F 40.1 °F 41.0 °F 93% 30.00 in 10.0 mi West 4.6 mph - N/A   Overcast
5:15 PM 42.8 °F 40.1 °F 41.0 °F 93% 30.00 in 10.0 mi West 4.6 mph - N/A   Overcast
5:34 PM 42.8 °F 39.3 °F 41.0 °F 93% 30.01 in 10.0 mi WNW 5.8 mph - N/A   Overcast
5:40 PM 42.8 °F 37.5 °F 39.2 °F 87% 30.01 in 10.0 mi WNW 9.2 mph - N/A   Overcast
5:54 PM 42.8 °F 39.3 °F 39.2 °F 87% 30.01 in 10.0 mi NNW 5.8 mph - N/A   Overcast
5:55 PM 42.6 °F 39.0 °F 39.0 °F 87% 30.01 in 10.0 mi North 5.8 mph - N/A   Overcast
6:55 PM 40.3 °F 38.2 °F 37.9 °F 91% 30.02 in 10.0 mi East 3.5 mph - N/A   Scattered Clouds
7:55 PM 39.9 °F 33.9 °F 37.2 °F 90% 30.04 in 10.0 mi NNW 9.2 mph - N/A   Clear
8:55 PM 37.2 °F 31.9 °F 32.9 °F 84% 30.06 in 10.0 mi North 6.9 mph 18.4 mph N/A   Clear
9:55 PM 35.6 °F 27.1 °F 31.6 °F 85% 30.05 in 10.0 mi North 12.7 mph - N/A   Clear
10:55 PM 34.3 °F 25.9 °F 31.1 °F 88% 30.08 in 10.0 mi North 11.5 mph - N/A   Clear
11:52 PM 33.8 °F 25.8 °F 30.2 °F 87% 30.09 in 10.0 mi North 10.4 mph - N/A   Mostly Cloudy
11:55 PM 33.4 °F 24.3 °F 30.7 °F 90% 30.09 in 10.0 mi North 12.7 mph - N/A   Mostly Cloudy
11:56 PM 33.8 °F 24.8 °F 30.2 °F 87% 30.09 in 10.0 mi North 12.7 mph - N/A   Mostly Cloudy
11:57 PM 33.8 °F 24.3 °F 30.2 °F 87% 30.09 in 10.0 mi North 13.8 mph - N/A   Mostly Cloudy